Location: Newark
(43.6583°N, 1.6617°E)
Time: 21:00:51
(UTC+00:00)

Tiros 1 - All Passes

Search period start: 25 August 2019 00:00
Search period end: 04 September 2019 00:00
Orbit: 631 x 664 km, 48.4° (Epoch: 25 August)

Date Brightness Start Highest point End Pass type
(mag) Time Alt. Az. Time Alt. Az. Time Alt. Az.
25 Aug - 00:35:00 10° W 00:39:33 56° NNW 00:44:09 10° ENE visible
25 Aug - 02:17:44 10° WNW 02:22:15 48° N 02:26:48 10° E visible
25 Aug - 04:00:03 10° WNW 04:04:44 84° SSW 04:09:27 10° ESE visible
25 Aug - 05:42:55 10° W 05:46:29 22° SW 05:50:03 10° S daylight
25 Aug - 21:37:45 10° SSW 21:41:31 25° SE 21:45:19 10° E night (unlit)
25 Aug - 23:18:43 10° WSW 23:23:20 86° NNW 23:28:01 10° ENE night (unlit)
26 Aug - 01:01:24 10° WNW 01:05:52 47° N 01:10:24 10° ENE visible
26 Aug - 02:43:56 10° WNW 02:48:33 61° NNE 02:53:13 10° E visible
26 Aug - 04:26:15 10° WNW 04:30:43 46° SW 04:35:13 10° SE visible
26 Aug - 20:25:10 10° SE 20:25:58 10° SE 20:26:47 10° ESE night (unlit)
26 Aug - 22:02:53 10° SW 22:07:20 50° SSE 22:11:49 10° ENE night (unlit)
26 Aug - 23:44:58 10° W 23:49:32 58° NNW 23:54:08 10° ENE night (unlit)
27 Aug - 01:27:44 10° WNW 01:32:14 48° N 01:36:46 10° E visible
27 Aug - 03:10:03 10° WNW 03:14:44 88° SSW 03:19:26 10° ESE visible
27 Aug - 04:52:49 10° W 04:56:31 23° SW 05:00:13 10° S daylight
27 Aug - 20:47:54 10° S 20:51:34 23° SE 20:55:14 10° E night (unlit)
27 Aug - 22:28:43 10° WSW 22:33:20 90° SSW 22:38:00 10° ENE night (unlit)
28 Aug - 00:11:22 10° W 00:15:51 47° N 00:20:22 10° ENE visible
28 Aug - 01:53:56 10° WNW 01:58:32 59° NNE 02:03:10 10° E visible
28 Aug - 03:36:14 10° WNW 03:40:44 49° SW 03:45:16 10° SE visible
28 Aug - 05:21:24 10° WSW 05:22:07 10° SW 05:22:50 10° SW daylight
28 Aug - 21:12:56 10° SW 21:17:21 47° SE 21:21:48 10° ENE visible
28 Aug - 22:54:57 10° W 22:59:31 60° NNW 23:04:08 10° ENE night (unlit)
29 Aug - 00:37:43 10° WNW 00:42:12 47° N 00:46:43 10° E visible
29 Aug - 02:20:03 10° WNW 02:24:44 88° NNE 02:29:25 10° ESE visible
29 Aug - 04:02:45 10° W 04:06:33 25° SW 04:10:21 10° SSE visible
29 Aug - 19:58:05 10° S 20:01:37 22° SE 20:05:08 10° E visible
29 Aug - 21:38:43 10° WSW 21:43:21 86° SSE 21:47:59 10° ENE visible
29 Aug - 23:21:21 10° W 23:25:50 48° N 23:30:20 10° ENE night (unlit)
30 Aug - 01:03:56 10° WNW 01:08:31 57° NNE 01:13:07 10° E visible
30 Aug - 02:46:14 10° WNW 02:50:45 53° SSW 02:55:18 10° SE visible
30 Aug - 04:30:42 10° WSW 04:32:10 11° SW 04:33:38 10° SSW visible
30 Aug - 20:23:01 10° SW 20:27:23 44° SE 20:31:47 10° ENE visible
30 Aug - 22:04:56 10° W 22:09:30 62° NNW 22:14:07 10° ENE visible
30 Aug - 23:47:42 10° WNW 23:52:11 46° N 23:56:40 10° ENE night (unlit)
31 Aug - 01:30:04 10° WNW 01:34:43 84° NNE 01:39:24 10° ESE night (unlit)
31 Aug - 03:12:41 10° W 03:16:35 27° SW 03:20:29 10° SSE visible
31 Aug - 19:08:17 10° S 19:11:40 20° SE 19:15:02 10° E visible
31 Aug - 20:48:44 10° WSW 20:53:22 81° SSE 20:58:00 10° ENE visible
31 Aug - 22:31:19 10° W 22:35:48 48° N 22:40:19 10° ENE visible
01 Sep - 00:13:56 10° WNW 00:18:30 55° NNE 00:23:05 10° E night (unlit)
01 Sep - 01:56:13 10° WNW 02:00:46 56° SSW 02:05:20 10° SE night (unlit)
01 Sep - 03:40:17 10° WSW 03:42:13 12° SW 03:44:09 10° SSW visible
01 Sep - 19:33:05 10° SSW 19:37:24 41° SE 19:41:45 10° ENE visible
01 Sep - 21:14:54 10° W 21:19:30 65° NNW 21:24:07 10° ENE visible
01 Sep - 22:57:41 10° WNW 23:02:09 46° N 23:06:38 10° ENE visible
02 Sep - 00:40:04 10° WNW 00:44:43 80° NNE 00:49:23 10° ESE night (unlit)
02 Sep - 02:22:38 10° W 02:26:37 29° SW 02:30:37 10° SSE night (unlit)
02 Sep - 18:18:30 10° S 18:21:42 19° SE 18:24:55 10° E daylight
02 Sep - 19:58:45 10° WSW 20:03:21 77° SSE 20:07:59 10° ENE visible
02 Sep - 21:41:17 10° W 21:45:47 49° N 21:50:18 10° ENE visible
02 Sep - 23:23:56 10° WNW 23:28:29 54° NNE 23:33:02 10° E visible
03 Sep - 01:06:12 10° WNW 01:10:46 60° SSW 01:15:21 10° SE night (unlit)
03 Sep - 02:50:01 10° WSW 02:52:16 13° SW 02:54:32 10° SSW night (unlit)
03 Sep - 18:43:09 10° SSW 18:47:26 38° SE 18:51:44 10° ENE daylight
03 Sep - 20:24:53 10° WSW 20:29:29 67° NNW 20:34:06 10° ENE visible
03 Sep - 22:07:40 10° WNW 22:12:08 46° N 22:16:36 10° ENE visible
03 Sep - 23:50:04 10° WNW 23:54:43 77° NNE 23:59:22 10° ESE night (unlit)
